Weather History for KPIL - June, 2014

Change the Weather History Date:

Wednesday, June 4, 2014

  Actual Average Record
Temperature  
Mean Temperature 82 °F -  
Max Temperature 88 °F - - ()
Min Temperature 77 °F - - ()
Cooling Degree Days 18    
Growing Degree Days 32 (Base 50)    
Moisture  
Dew Point 73 °F    
Average Humidity 72    
Maximum Humidity 88    
Minimum Humidity 59    
Precipitation  
Precipitation 0.00 in - - ()
Sea Level Pressure  
Sea Level Pressure 29.87 in    
Wind  
Wind Speed 10 mph (SE)    
Max Wind Speed 17 mph    
Max Gust Speed 24 mph    
Visibility 10 miles    
Events      
T = Trace of Precipitation, MM = Missing Value Source: NWS Daily Summary

Daily Weather History Graph

Daily Weather History Graph

Search for Another Location

Airport or City:

Trip Planner

Search our weather history database for the weather conditions in past years. The results will help you decide how hot, cold, wet, or windy it might be!

Date:

Astronomy

Jun. 04, 2014 Rise Set
Actual Time 6:36 AM CDT 8:18 PM CDT
Civil Twilight 6:10 AM CDT 8:44 PM CDT
Nautical Twilight 5:39 AM CDT 9:15 PM CDT
Astronomical Twilight 5:07 AM CDT 9:48 PM CDT
Moon 12:32 PM CDT (6/4) 12:41 AM CDT (6/4)
Length of Visible Light 14h 33m
Length of Day
13h 42m
Waxing Crescent, 39% of the Moon is Illuminated
Jun 4
Waxing Crescent
Jun 5
First Quarter
Jun 12
Full
Jun 19
Last Quarter
Jun 27
New

Hourly Weather History & Observations

Time (CDT) Temp. Heat Index Dew Point Humidity Pressure Visibility Wind Dir Wind Speed Gust Speed Precip Events Conditions
12:23 AM 80.6 °F 85.4 °F 73.4 °F 79% 29.91 in 10.0 mi SE 11.5 mph - N/A   Mostly Cloudy
12:49 AM 80.6 °F 84.6 °F 71.6 °F 74% 29.90 in 10.0 mi ESE 9.2 mph - N/A   Scattered Clouds
12:53 AM 80.1 °F 84.2 °F 73.0 °F 79% 29.91 in 10.0 mi SE 9.2 mph - N/A   Scattered Clouds
1:53 AM 80.1 °F 83.8 °F 72.0 °F 76% 29.89 in 10.0 mi SE 10.4 mph - N/A   Clear
2:53 AM 79.0 °F - 72.0 °F 79% 29.87 in 10.0 mi SE 6.9 mph - N/A   Partly Cloudy
3:53 AM 79.0 °F - 72.0 °F 79% 29.86 in 10.0 mi SE 4.6 mph - N/A   Partly Cloudy
4:53 AM 78.1 °F - 72.0 °F 81% 29.86 in 10.0 mi SE 3.5 mph - N/A   Clear
5:53 AM 77.0 °F - 72.0 °F 84% 29.86 in 10.0 mi SSE 3.5 mph - N/A   Clear
6:53 AM 77.0 °F - 73.0 °F 88% 29.86 in 10.0 mi SSE 4.6 mph - N/A   Partly Cloudy
7:53 AM 80.1 °F 84.2 °F 73.0 °F 79% 29.87 in 10.0 mi SE 5.8 mph - N/A   Clear
8:50 AM 84.2 °F 90.9 °F 73.4 °F 70% 29.89 in 10.0 mi SSE 6.9 mph - N/A   Mostly Cloudy
8:53 AM 84.0 °F 90.2 °F 73.0 °F 69% 29.88 in 10.0 mi SSE 5.8 mph - N/A   Mostly Cloudy
9:38 AM 84.2 °F 89.6 °F 71.6 °F 66% 29.89 in 10.0 mi ESE 8.1 mph - N/A   Scattered Clouds
9:53 AM 84.9 °F 91.4 °F 73.0 °F 67% 29.89 in 10.0 mi ESE 12.7 mph - N/A   Scattered Clouds
10:53 AM 86.0 °F 93.0 °F 73.0 °F 65% 29.89 in 10.0 mi ESE 12.7 mph - N/A   Clear
11:53 AM 86.0 °F 91.5 °F 71.1 °F 61% 29.88 in 10.0 mi East 11.5 mph - N/A   Clear
12:53 PM 87.1 °F 94.5 °F 73.0 °F 63% 29.87 in 10.0 mi ESE 17.3 mph - N/A   Clear
1:53 PM 87.1 °F 94.5 °F 73.0 °F 63% 29.86 in 10.0 mi ESE 16.1 mph - N/A   Clear
2:53 PM 88.0 °F 94.7 °F 72.0 °F 59% 29.86 in 10.0 mi East 15.0 mph 21.9 mph N/A   Partly Cloudy
3:53 PM 88.0 °F 95.6 °F 73.0 °F 61% 29.84 in 10.0 mi ESE 16.1 mph - N/A   Clear
4:53 PM 87.1 °F 95.4 °F 73.9 °F 65% 29.83 in 10.0 mi ESE 16.1 mph - N/A   Clear
5:53 PM 86.0 °F 93.0 °F 73.0 °F 65% 29.83 in 10.0 mi ESE 17.3 mph 24.2 mph N/A   Clear
6:53 PM 84.9 °F 91.4 °F 73.0 °F 67% 29.82 in 10.0 mi SE 16.1 mph - N/A   Partly Cloudy
7:53 PM 82.9 °F 88.8 °F 73.0 °F 72% 29.83 in 10.0 mi ESE 15.0 mph - N/A   Partly Cloudy
8:53 PM 82.0 °F 87.4 °F 73.0 °F 74% 29.83 in 10.0 mi ESE 12.7 mph - N/A   Partly Cloudy
10:53 PM 81.0 °F 85.2 °F 72.0 °F 74% 29.86 in 10.0 mi SE 17.3 mph - N/A   Mostly Cloudy
11:53 PM 81.0 °F 85.8 °F 73.0 °F 77% 29.86 in 10.0 mi SE 16.1 mph - N/A   Mostly Cloudy